Vorticity
nan nan nan nan nan nan nan nan nan nan nan nan nan nan nan nan nan nan nan nan nan nan nan nan nan nan nan nan nan nan nan nan nan nan nan nan nan nan nan nan nan nan nan nan
nan 8 11 9 4 9 9 11 9 9 10 9 12 8 9 10 6 11 3 1 11 11 9 10 9 7 7 7 6 6 7 7 4 5 7 9 9 9 9 10 14 11 8 nan
nan 0 6 4 8 9 14 12 15 13 11 8 4 5 12 10 5 10 8 5 13 13 6 7 7 6 7 7 8 7 8 6 5 5 5 7 8 9 9 10 11 12 9 nan
nan 12 6 7 12 12 6 14 14 9 9 9 5 10 9 15 9 7 7 7 6 9 13 9 6 7 7 6 7 8 8 7 5 7 7 7 7 7 7 9 9 9 9 nan
nan 12 15 15 12 13 9 10 7 6 7 9 7 12 10 11 14 13 11 8 5 15 15 9 8 8 7 8 7 7 8 7 6 6 6 6 7 7 8 9 9 8 8 nan
nan 7 10 8 10 9 12 4 5 8 8 9 14 6 10 7 7 12 15 7 9 16 15 13 10 9 7 8 8 8 8 6 7 8 7 8 6 6 6 9 9 8 7 nan
nan 11 13 10 5 10 11 6 8 5 11 8 7 10 10 5 14 13 14 15 12 11 14 14 10 7 8 8 8 7 8 7 8 8 7 8 9 9 7 7 9 8 8 nan
nan 9 17 11 15 9 3 7 7 8 5 10 12 7 11 11 10 14 10 12 13 12 13 12 11 9 9 8 7 7 7 7 7 7 8 8 8 8 9 7 8 8 8 nan
nan 7 10 13 15 8 7 11 9 4 8 14 5 3 7 11 8 9 16 22 20 13 12 11 10 10 8 9 9 7 6 7 8 7 7 8 8 8 9 9 6 8 7 nan
nan 13 1 10 11 11 13 3 7 11 12 7 8 12 10 7 6 7 18 17 23 20 14 10 11 11 9 9 9 9 10 9 8 8 7 8 8 7 8 9 8 7 9 nan
nan 10 7 10 9 8 5 9 14 15 7 11 10 8 19 17 5 6 10 16 18 10 13 11 9 10 11 10 11 9 8 9 9 9 9 8 9 9 8 7 8 8 9 nan
nan 7 17 8 9 15 14 12 9 6 9 14 9 1 5 17 15 12 7 7 15 20 11 10 9 8 11 10 10 10 9 9 9 9 9 8 7 8 7 8 9 9 8 nan
nan 7 6 8 12 14 9 9 10 8 14 8 7 6 8 7 3 9 11 8 5 13 16 10 9 10 8 9 10 10 9 9 9 9 8 9 8 7 8 8 9 9 9 nan
nan 12 13 9 5 2 4 9 8 9 8 13 6 10 5 2 4 7 3 12 11 8 10 12 9 9 9 9 8 9 9 10 9 9 9 8 9 9 8 9 9 9 9 nan
nan 10 10 11 10 12 10 3 8 11 9 11 8 8 10 12 15 12 2 3 5 13 11 13 10 9 10 9 8 9 10 9 10 8 8 10 10 10 10 10 9 9 9 nan
nan 13 8 10 10 16 16 11 9 8 10 9 12 11 11 6 13 14 11 5 9 8 16 15 13 10 10 8 7 7 10 10 9 9 8 9 10 10 10 9 10 9 9 nan
nan 10 12 10 8 7 11 16 10 9 10 7 9 10 8 9 13 6 7 7 11 8 5 14 20 15 8 8 10 9 9 9 9 8 10 10 9 9 9 10 9 9 9 nan
nan 10 8 8 9 12 11 10 11 12 12 9 10 18 9 7 17 17 11 10 6 7 5 7 6 10 16 18 9 10 12 11 10 9 10 11 11 10 11 11 10 9 12 nan
nan 6 11 14 7 4 10 6 10 13 4 7 12 15 14 22 17 10 17 20 11 -3 6 15 7 6 13 14 14 10 8 11 10 11 9 11 11 12 13 13 12 11 10 nan
nan 11 11 9 11 11 5 3 12 11 -2 -1 8 7 12 20 17 7 8 10 13 15 14 8 9 5 12 15 16 11 11 8 8 10 12 13 13 11 9 11 12 12 12 nan
nan 15 12 10 10 11 7 9 21 15 5 5 8 6 9 15 7 7 8 13 12 14 10 9 9 6 6 19 17 10 10 12 10 11 12 11 13 13 10 9 9 11 11 nan
nan 10 8 11 11 7 10 16 21 14 11 10 7 6 6 1 11 15 10 10 9 10 11 15 14 8 -1 15 17 12 8 12 12 12 11 10 10 10 9 9 9 10 10 nan
nan 14 11 12 7 7 11 12 11 12 9 6 6 3 6 9 12 12 8 13 13 6 8 10 17 11 3 6 18 17 12 13 12 10 9 8 9 10 10 9 8 8 9 nan
nan 12 11 5 10 17 14 12 12 8 6 8 9 9 7 5 7 8 12 12 12 12 10 6 9 14 9 7 18 21 13 10 10 8 7 9 9 9 9 9 9 9 7 nan
nan 6 12 7 8 9 5 8 12 14 11 11 14 11 6 11 12 9 9 7 11 4 16 21 11 8 6 4 16 17 10 8 8 8 8 9 9 10 8 9 11 10 10 nan
nan nan nan nan nan nan nan nan nan nan nan nan nan nan nan nan nan nan nan nan nan nan nan nan nan nan nan nan nan nan nan nan nan nan nan nan nan nan nan nan nan nan nan nan
CAPE
0 0 0 0 0 0 0 0 0 59 366 611 662 651 681 442 356 335 155 190 381 230 272 317 263 513 288 428 429 273 418 426 464 255 130 37 8 0 0 0 5 354 531 44
0 0 0 0 0 0 0 0 0 104 223 496 368 612 491 433 277 204 130 324 253 406 240 308 375 471 472 536 436 289 292 480 460 186 2 12 0 0 0 43 373 399 686 592
0 0 0 0 0 0 0 0 0 43 263 244 199 191 689 772 985 493 219 478 349 315 267 297 344 440 525 693 499 292 321 447 265 57 6 25 103 177 256 382 451 757 847 334
0 0 0 0 0 0 0 0 97 216 59 29 57 46 111 303 441 315 232 213 250 160 207 357 377 455 570 702 550 388 336 364 232 107 118 119 75 107 2 13 165 670 563 187
0 0 0 0 0 0 0 80 82 53 24 1 133 64 23 202 458 172 71 23 9 129 198 443 448 629 724 729 584 500 406 335 273 247 177 277 21 9 6 119 455 299 40 0
0 0 0 0 0 0 0 1 1 7 1 0 0 93 9 139 108 78 183 107 44 17 210 435 559 741 763 805 630 662 445 258 142 335 229 256 202 94 618 483 287 728 98 0
0 0 0 0 0 0 0 0 0 0 0 0 0 0 0 13 110 11 0 31 33 10 260 361 646 782 675 857 780 793 574 338 179 435 370 494 355 151 462 383 545 847 672 651
0 0 0 0 0 0 0 0 0 0 0 0 0 0 33 65 56 34 6 3 77 112 328 378 550 678 901 899 969 833 732 582 435 708 504 428 430 456 304 313 514 402 442 524
0 0 0 0 0 0 0 0 0 0 0 0 0 14 192 104 1 0 39 50 2 212 335 442 609 691 846 939 894 883 836 911 848 700 832 531 363 451 547 300 447 488 437 832
0 0 0 0 0 0 0 0 0 0 0 2 88 84 8 166 94 2 344 556 199 306 369 414 609 694 791 876 895 921 1099 1126 1063 663 830 896 594 759 761 717 517 780 851 894
0 0 0 0 0 0 0 0 0 0 0 0 14 71 36 0 52 45 169 238 572 724 643 702 729 810 960 1253 1104 1191 1321 1199 990 849 829 1125 931 996 998 959 884 715 1174 1015
0 0 0 0 0 0 0 0 0 0 5 0 0 5 8 0 54 159 375 428 438 533 1005 1026 904 840 858 1424 1508 1591 1419 1369 1182 1093 1101 1036 1156 1024 902 791 660 566 580 867
0 0 0 0 0 0 2 0 0 0 0 0 8 81 39 10 155 630 456 87 346 209 828 1014 929 1003 991 1153 1768 1788 1797 1693 1542 1379 1442 1199 1027 1033 963 895 779 542 452 527
0 0 0 0 0 0 0 0 0 0 0 0 3 16 8 0 17 118 225 0 0 589 679 850 880 1044 1043 912 1308 1480 1653 1763 1639 1463 1518 1470 1320 1317 1239 1233 1189 938 644 503
0 0 0 0 0 0 0 1 0 0 0 0 0 24 0 0 0 22 105 28 42 29 370 967 1024 1110 1147 1049 1093 1348 1342 1324 1256 1377 1400 1627 1493 1611 1547 1434 1409 1215 1091 1042
0 0 0 0 0 0 0 0 0 0 0 0 0 14 2 2 4 122 253 168 168 99 332 888 1208 1262 1322 1335 1179 1439 1376 1366 1168 1128 1343 1190 1468 1438 1487 1530 1413 1444 1692 1621
0 0 0 0 0 0 0 0 3 2 14 0 0 1 0 0 35 77 162 66 11 265 206 630 1467 1632 1496 1724 1557 1663 1650 1615 1528 1256 1216 1334 1301 1615 1677 1594 1729 1755 1775 1901
0 0 0 0 0 0 0 0 0 0 0 0 0 0 0 0 0 15 40 7 6 388 324 141 268 578 1351 1890 2196 1936 2081 1897 2060 1940 2117 2098 2015 1879 1895 2109 2054 1971 1919 1947
0 0 0 0 0 0 0 8 70 43 0 0 2 0 35 77 44 28 102 118 140 97 122 159 147 201 375 1714 2230 2427 2430 2300 2269 2510 2365 2455 2948 3101 2998 2871 2754 2586 2397 1333
0 0 0 0 0 0 0 68 161 32 11 0 0 0 0 65 0 1 60 79 0 17 27 283 272 142 417 1113 2387 2371 2611 2655 2548 2607 2919 2933 3007 2854 2329 1096 958 357 293 223
0 0 0 0 0 0 0 18 138 209 2 17 46 5 0 0 8 14 4 68 0 61 151 108 250 109 252 1466 2767 2745 2815 2894 2776 2861 2738 2090 1347 751 348 161 119 43 0 0
0 0 0 0 0 2 0 44 76 61 0 6 29 53 1 0 9 5 6 0 3 130 44 71 334 156 58 747 2998 3039 3135 2872 2470 1726 1138 622 431 345 30 1 0 0 0 0
0 0 0 0 0 0 22 87 4 0 0 0 0 0 0 0 4 113 55 32 0 0 0 0 0 0 0 56 2614 3304 2331 1817 1000 735 194 43 11 0 0 0 0 0 0 0
0 0 0 0 0 0 145 86 135 48 0 0 3 0 0 0 0 14 51 88 93 11 0 0 0 0 0 168 1851 2104 1045 779 691 379 109 0 0 0 0 0 0 0 0 0
0 0 0 0 0 0 0 0 0 0 0 0 0 0 0 0 0 1 0 40 141 120 59 336 2 0 0 0 585 143 688 527 430 272 73 18 1 0 0 0 0 0 0 0
0 0 0 0 0 0 0 0 0 0 0 0 0 0 0 0 0 2 0 32 60 158 190 244 114 168 44 0 27 207 266 316 274 213 84 52 0 0 0 0 0 0 0 1